                ,  0.945,  1.145,  1.345,  1.545,  1.745,  1.945,  2.145,  2.345,  2.545,  2.745,  2.945,  3.145,  3.345,  3.545,  3.745,  3.945,  4.145,  4.345,  4.545,  4.745,  4.945,  5.145,  5.345,  5.545,  5.745,  5.945,  6.145,  6.345,  6.545,  6.745,  6.945,  7.145,  7.345,  7.545,  7.745,  7.945,  8.145,  8.345,  8.545,  8.745,  8.945,  9.145,  9.345,  9.545,  9.745,  9.945
2000/06/11 00:00,  999.0,  999.0,  999.0,  999.0,  999.0,  999.0,  999.0,  999.0,  999.0,  999.0,  999.0,  999.0,  999.0,  999.0,  999.0,  999.0,  999.0,  999.0,  999.0,  999.0,  999.0,  999.0,  999.0,  999.0,  999.0,  999.0,  999.0,  999.0,  999.0,  999.0,  999.0,  999.0,  999.0,  999.0,  999.0,  999.0,  999.0,  999.0,  999.0,  999.0,  999.0,  999.0,  999.0,  999.0,  999.0,  999.0
2000/06/11 00:10,   -6.1,   -6.2,   -6.1,   -6.4,  999.0,  999.0,  999.0,  999.0,   -6.3,   -4.7,  999.0,  999.0,  999.0,   -1.7,  999.0,   -1.6,   -1.6,   -1.5,   -1.5,   -1.5,   -1.4,   -1.3,   -1.3,   -1.3,   -1.2,   -1.2,   -1.1,   -1.1,   -1.1,   -1.0,   -1.0,   -1.0,   -1.2,   -1.1,   -1.2,   -1.1,   -1.0,   -0.9,   -1.0,   -1.0,   -0.9,   -0.9,   -0.9,   -0.8,   -0.7,   -0.7
2000/06/11 00:20,   -6.6,   -6.8,   -6.9,   -7.1,   -7.1,   -7.2,   -7.6,   -7.6,   -7.1,  999.0,  999.0,  999.0,   -1.8,   -1.7,  999.0,   -1.6,   -1.6,   -1.5,   -1.4,   -1.4,   -1.3,   -1.3,   -1.2,   -1.2,   -1.1,   -1.1,   -1.1,   -1.1,   -1.0,   -1.0,   -0.9,   -1.0,   -1.1,   -1.2,   -1.2,   -1.2,   -1.2,   -1.1,   -1.2,   -1.1,   -1.0,   -1.0,   -0.8,   -0.8,   -0.7,   -0.7
2000/06/11 00:30,   -7.0,   -7.0,   -7.0,   -7.1,   -7.7,   -7.4,   -7.6,   -7.8,   -6.8,  999.0,  999.0,  999.0,   -1.7,   -1.7,   -1.7,   -1.6,   -1.5,   -1.5,   -1.4,   -1.4,   -1.3,   -1.2,   -1.2,   -1.1,   -1.2,   -1.1,   -1.1,   -1.1,   -1.2,   -1.2,   -1.1,   -1.1,   -1.1,   -1.2,   -1.2,   -1.2,   -1.2,   -1.2,   -1.1,   -1.1,   -1.0,   -1.0,   -1.0,   -0.9,   -0.8,   -0.8
2000/06/11 00:40,   -6.3,   -6.3,   -6.5,   -6.6,   -6.6,   -6.8,   -6.8,   -6.7,   -6.1,  999.0,  999.0,   -1.9,   -1.7,   -1.8,   -1.7,   -1.6,   -1.5,   -1.4,   -1.4,   -1.3,   -1.3,   -1.4,   -1.3,   -1.2,   -1.2,   -1.2,   -1.2,   -1.1,   -1.1,   -1.1,   -1.1,   -1.2,   -1.2,   -1.3,   -1.2,   -1.2,   -1.1,   -1.1,   -1.1,   -1.1,   -1.0,   -0.9,   -0.9,   -0.9,   -0.9,   -0.7
2000/06/11 00:50,   -6.2,   -6.3,   -6.2,   -6.6,   -6.4,   -6.5,   -6.5,   -6.6,   -5.9,  999.0,  999.0,  999.0,   -1.7,   -1.7,   -1.5,   -1.4,   -1.5,   -1.4,   -1.4,   -1.4,   -1.3,   -1.3,   -1.3,   -1.2,   -1.2,   -1.2,   -1.2,   -1.2,   -1.1,   -1.1,   -1.2,   -1.2,   -1.2,   -1.2,   -1.2,   -1.1,   -1.2,   -1.1,   -1.0,   -1.0,   -0.9,   -1.0,   -1.0,   -0.8,   -0.9,   -0.7
2000/06/11 01:00,   -5.8,   -5.8,   -6.0,   -6.0,   -6.1,   -6.3,   -6.2,   -6.3,   -5.5,   -3.3,  999.0,   -2.0,   -1.8,  999.0,   -1.6,   -1.5,   -1.5,   -1.5,   -1.4,   -1.5,   -1.3,   -1.3,   -1.3,   -1.2,   -1.2,   -1.2,   -1.1,   -1.1,   -1.1,   -1.2,   -1.2,   -1.2,   -1.3,   -1.2,   -1.3,   -1.3,   -1.2,   -1.2,   -1.0,   -1.0,   -1.0,   -0.9,   -0.9,   -0.8,   -0.7,   -0.7
2000/06/11 01:10,   -6.0,   -6.0,   -6.1,   -6.1,   -6.3,   -6.2,   -6.4,   -6.6,   -5.9,   -4.0,  999.0,  999.0,   -1.7,   -1.7,   -1.5,   -1.4,   -1.5,   -1.4,   -1.4,   -1.4,   -1.3,   -1.2,   -1.2,   -1.2,   -1.2,   -1.1,   -1.1,   -1.2,   -1.2,   -1.2,   -1.3,   -1.3,   -1.2,   -1.2,   -1.2,   -1.1,   -1.1,   -1.0,   -1.0,   -0.9,   -0.9,   -0.8,   -0.8,   -0.7,   -0.7,   -0.7
2000/06/11 01:20,   -5.8,   -5.9,   -6.0,   -6.1,   -6.2,   -5.9,   -6.0,   -6.6,   -6.3,   -5.7,  999.0,   -2.2,   -1.7,   -1.6,   -1.5,  999.0,   -1.4,   -1.4,   -1.4,   -1.4,   -1.4,   -1.3,   -1.3,   -1.3,   -1.3,   -1.2,   -1.2,   -1.1,   -1.2,   -1.1,   -1.1,   -1.1,   -1.1,   -1.1,   -1.0,   -1.0,   -1.0,   -1.0,   -1.0,   -1.0,   -0.9,   -0.9,   -0.8,   -0.8,   -0.7,   -0.7
2000/06/11 01:30,   -6.1,   -6.1,   -6.2,   -6.6,   -6.5,  999.0,  999.0,   -6.6,   -6.8,   -5.9,  999.0,  999.0,   -1.8,  999.0,  999.0,   -1.6,   -1.5,   -1.5,   -1.5,   -1.4,   -1.4,   -1.4,   -1.3,   -1.3,   -1.2,   -1.2,   -1.2,   -1.1,   -1.2,   -1.2,   -1.2,   -1.2,   -1.2,   -1.2,   -1.2,   -1.2,   -1.2,   -1.2,   -1.1,   -1.0,   -0.9,   -0.9,   -0.9,   -0.9,   -0.8,   -0.8
2000/06/11 01:40,   -6.5,   -6.6,   -6.8,   -6.9,   -6.6,   -6.7,   -6.7,   -6.9,  999.0,   -5.9,  999.0,  999.0,  999.0,   -1.7,  999.0,   -1.6,   -1.5,   -1.5,   -1.6,   -1.5,   -1.4,   -1.4,   -1.4,   -1.3,   -1.3,   -1.3,   -1.3,   -1.2,   -1.1,   -1.0,   -1.0,   -1.1,   -1.0,   -1.1,   -1.1,   -1.0,   -1.0,   -1.0,   -1.0,   -1.0,   -1.0,   -1.0,   -1.0,   -0.9,   -0.9,   -0.8
2000/06/11 01:50,   -6.3,   -6.4,   -6.8,   -6.5,   -6.9,  999.0,   -6.4,   -6.7,  999.0,   -5.6,   -3.2,  999.0,  999.0,   -1.7,  999.0,   -1.6,   -1.6,   -1.6,   -1.6,   -1.5,   -1.5,   -1.4,   -1.4,   -1.4,   -1.3,   -1.3,   -1.2,   -1.1,   -1.0,   -1.0,   -1.0,   -1.0,   -1.0,   -1.0,   -1.1,   -1.1,   -1.1,   -1.1,   -1.1,   -1.0,   -1.0,   -1.0,   -1.0,   -0.9,   -0.9,   -0.9
2000/06/11 02:00,   -5.7,   -5.8,   -5.9,   -5.7,   -5.9,   -5.9,   -5.9,   -5.9,   -6.0,   -5.5,   -3.3,   -2.1,   -1.7,   -1.6,  999.0,   -1.5,   -1.5,   -1.5,   -1.4,   -1.4,   -1.4,   -1.4,   -1.4,   -1.3,   -1.3,   -1.2,   -1.1,   -1.1,   -1.1,   -1.0,   -1.0,   -1.0,   -1.1,   -1.1,   -1.0,   -1.0,   -1.0,   -1.0,   -1.0,   -1.0,   -0.9,   -0.9,   -0.9,   -0.9,   -0.8,   -0.8
2000/06/11 02:10,   -5.6,   -5.6,   -5.7,   -5.6,   -5.9,   -5.9,   -5.8,   -5.9,   -6.1,   -5.7,   -3.4,   -2.2,   -1.9,   -1.7,  999.0,   -1.7,   -1.7,   -1.7,   -1.6,   -1.6,   -1.5,   -1.6,   -1.4,   -1.4,   -1.3,   -1.2,   -1.1,   -1.1,   -1.1,   -1.1,   -1.1,   -1.1,   -1.1,   -1.1,   -1.1,   -1.1,   -1.1,   -1.1,   -1.0,   -1.0,   -0.9,   -1.0,   -0.9,   -0.8,   -0.7,   -0.7
2000/06/11 02:20,   -5.6,   -5.6,   -5.7,   -5.6,   -5.6,   -5.9,   -5.9,   -5.8,   -5.9,   -5.6,   -3.2,  999.0,   -1.8,  999.0,  999.0,   -1.8,   -1.8,   -1.6,   -1.6,   -1.6,   -1.6,   -1.6,   -1.5,   -1.4,   -1.3,   -1.3,   -1.2,   -1.1,   -1.1,   -1.0,   -1.0,   -1.1,   -1.1,   -1.1,   -1.1,   -1.2,   -1.2,   -1.1,   -1.1,   -1.0,   -1.0,   -0.9,   -0.8,   -0.8,   -0.7,   -0.7
2000/06/11 02:30,   -4.9,   -4.7,   -4.9,   -4.9,   -5.0,   -5.0,   -5.1,   -5.3,   -5.3,   -5.4,   -3.4,   -2.3,   -2.0,  999.0,   -1.7,   -1.8,   -1.6,   -1.6,   -1.6,   -1.5,   -1.5,   -1.5,   -1.5,   -1.5,   -1.4,   -1.3,   -1.2,   -1.1,   -1.1,   -1.0,   -1.2,   -1.2,   -1.2,   -1.2,   -1.2,   -1.2,   -1.2,   -1.2,   -1.1,   -1.0,   -0.9,   -0.8,   -0.8,   -0.8,   -0.7,   -0.5
2000/06/11 02:40,   -5.7,   -5.8,   -5.6,   -5.7,  999.0,   -6.0,   -5.9,   -6.1,   -5.8,   -5.6,  999.0,   -2.3,  999.0,  999.0,   -1.6,   -1.6,   -1.6,   -1.6,   -1.6,   -1.5,   -1.5,   -1.5,   -1.5,   -1.4,   -1.4,   -1.3,   -1.2,   -1.2,   -1.2,   -1.1,   -1.2,   -1.2,   -1.1,   -1.1,   -1.1,   -1.1,   -1.1,   -1.1,   -1.0,   -1.0,   -0.9,   -0.9,   -0.8,   -0.7,   -0.6,   -0.5
2000/06/11 02:50,   -5.0,   -5.0,   -5.1,   -5.1,   -5.1,   -5.1,   -5.1,   -5.0,   -5.0,   -4.8,   -3.4,   -2.2,   -1.8,   -1.6,   -1.5,   -1.5,   -1.4,   -1.5,   -1.5,   -1.4,   -1.4,   -1.4,   -1.4,   -1.3,   -1.2,   -1.2,   -1.2,   -1.2,   -1.2,   -1.2,   -1.1,   -1.1,   -1.2,   -1.2,   -1.2,   -1.2,   -1.1,   -1.1,   -1.1,   -1.0,   -1.0,   -0.9,   -0.9,   -0.8,   -0.9,   -0.7
2000/06/11 03:00,   -4.5,   -4.5,   -4.5,   -4.6,   -4.8,   -4.8,   -4.8,   -4.9,   -4.9,   -4.9,   -3.2,   -2.2,   -2.2,   -2.0,   -1.8,   -1.2,   -1.3,   -1.5,   -1.4,   -1.4,   -1.3,   -1.3,   -1.3,   -1.2,   -1.2,   -1.1,   -1.1,   -1.1,   -1.1,   -1.0,   -1.1,   -1.1,   -1.1,   -1.1,   -1.1,   -1.1,   -1.1,   -1.1,   -1.0,   -1.0,   -0.9,   -0.9,   -0.9,   -0.8,   -0.7,   -0.6
2000/06/11 03:10,   -4.8,   -4.7,   -4.7,   -4.7,  999.0,   -4.6,   -5.6,   -5.3,   -5.3,   -5.1,   -3.6,   -2.6,   -2.1,   -2.0,   -1.8,   -1.8,   -1.7,   -1.6,   -1.4,   -1.4,   -1.4,   -1.4,   -1.4,   -1.3,   -1.3,   -1.3,   -1.2,   -1.2,   -1.2,   -1.2,   -1.2,   -1.2,   -1.2,   -1.2,   -1.1,   -1.1,   -1.1,   -1.0,   -1.0,   -1.0,   -1.0,   -1.0,   -0.9,   -0.9,   -0.8,   -0.8
2000/06/11 03:20,   -5.5,   -5.5,   -5.4,   -5.2,   -5.0,   -4.8,   -5.0,   -5.3,   -5.5,   -5.0,  999.0,   -2.4,   -1.9,   -1.8,   -1.7,   -1.6,   -1.5,   -1.4,   -1.4,   -1.3,   -1.2,   -1.2,   -1.2,   -1.1,   -1.2,   -1.1,   -1.1,   -1.1,   -1.0,   -1.1,   -1.0,   -1.0,   -1.0,   -1.0,   -1.0,   -1.0,   -1.1,   -1.0,   -1.0,   -1.0,   -1.0,   -1.0,   -0.9,   -0.9,   -0.9,   -0.8
2000/06/11 03:30,   -5.0,   -5.1,   -5.2,   -5.4,   -5.4,   -5.5,   -5.6,   -5.6,   -5.7,   -4.7,  999.0,   -1.9,   -1.6,   -1.7,   -1.6,   -1.5,   -1.4,   -1.4,   -1.3,   -1.3,   -1.2,   -1.2,   -1.2,   -1.2,   -1.2,   -1.1,   -1.2,   -1.1,   -1.1,   -1.1,   -1.1,   -1.1,   -1.2,   -1.2,   -1.2,   -1.2,   -1.2,   -1.1,   -1.2,   -1.1,   -1.0,   -1.0,   -1.0,   -0.9,   -0.8,   -0.8
2000/06/11 03:40,   -5.7,   -5.9,   -6.0,   -6.0,  999.0,   -6.3,   -5.9,   -6.2,   -6.1,   -4.0,   -2.6,   -2.4,   -2.0,   -2.0,   -2.1,   -1.2,   -1.0,   -1.3,   -1.2,   -1.3,   -1.3,   -1.3,   -1.2,   -1.2,   -1.2,   -1.2,   -1.2,   -1.2,   -1.2,   -1.2,   -1.3,   -1.3,   -1.3,   -1.4,   -1.4,   -1.4,   -1.4,   -1.4,   -1.3,   -1.2,   -1.2,   -1.1,   -1.1,   -1.0,   -0.9,   -0.8
2000/06/11 03:50,   -4.8,   -4.8,   -5.0,   -5.0,   -4.9,   -5.0,   -5.0,   -4.9,   -5.0,   -3.8,   -2.6,   -2.7,   -2.8,   -2.0,   -1.7,   -1.6,   -1.4,   -1.5,   -1.5,   -1.3,   -1.4,   -1.4,   -1.4,   -1.4,   -1.4,   -1.4,   -1.3,   -1.3,   -1.3,   -1.3,   -1.3,   -1.3,   -1.3,   -1.3,   -1.3,   -1.3,   -1.3,   -1.2,   -1.2,   -1.1,   -1.1,   -1.1,   -1.0,   -0.9,   -0.8,   -0.8
2000/06/11 04:00,   -4.9,   -5.1,   -5.2,   -5.1,   -5.0,   -5.1,   -5.3,   -5.3,   -5.4,   -4.3,   -3.3,   -2.8,   -1.9,   -1.7,   -1.7,   -1.7,   -1.5,   -1.5,   -1.4,   -1.3,   -1.3,   -1.2,   -1.2,   -1.1,   -1.1,   -1.0,   -1.0,   -1.0,   -1.0,   -1.0,   -1.0,   -1.0,   -1.1,   -1.1,   -1.1,   -1.1,   -1.1,   -1.0,   -1.0,   -1.0,   -0.9,   -0.9,   -0.8,   -0.8,   -0.8,   -0.7
2000/06/11 04:10,   -4.3,   -4.5,   -4.6,   -4.6,   -4.7,   -4.9,   -4.9,   -5.1,   -5.3,   -4.8,   -3.1,   -2.2,   -1.7,   -1.6,   -1.6,   -1.6,   -1.4,   -1.4,   -1.4,   -1.4,   -1.4,   -1.4,   -1.3,   -1.3,   -1.2,   -1.2,   -1.2,   -1.2,   -1.2,   -1.1,   -1.1,   -1.2,   -1.2,   -1.2,   -1.2,   -1.2,   -1.1,   -1.1,   -1.1,   -1.0,   -1.0,   -0.9,   -0.9,   -0.8,   -0.8,   -0.8
2000/06/11 04:20,   -5.3,   -5.0,   -5.3,   -5.1,   -5.2,   -5.0,   -5.1,   -5.1,   -5.0,   -4.8,   -3.3,   -2.2,   -1.7,   -1.6,   -1.6,   -1.4,  999.0,   -1.3,   -1.3,   -1.2,   -1.2,   -1.2,   -1.2,   -1.2,   -1.2,   -1.1,   -1.1,   -1.1,   -1.1,   -1.1,   -1.0,   -1.1,   -1.1,   -1.1,   -1.1,   -1.1,   -1.1,   -1.1,   -1.1,   -1.0,   -0.9,   -0.9,   -0.9,   -0.8,   -0.8,   -0.7
2000/06/11 04:30,   -4.6,   -4.5,   -4.7,   -4.8,   -4.6,   -5.2,   -4.7,   -5.1,   -5.2,   -5.4,   -3.5,   -2.0,  999.0,   -1.5,   -1.5,   -1.3,   -1.3,   -1.3,   -1.3,   -1.2,   -1.2,   -1.2,   -1.2,   -1.1,   -1.1,   -1.1,   -1.1,   -1.0,   -1.0,   -1.0,   -1.0,   -1.1,   -1.1,   -1.1,   -1.1,   -1.2,   -1.1,   -1.1,   -1.1,   -1.1,   -1.0,   -0.9,   -0.9,   -0.9,   -0.9,   -0.7
2000/06/11 04:40,  999.0,  999.0,  999.0,   -5.2,   -5.0,   -5.0,   -5.0,   -4.8,   -5.6,   -5.6,   -4.5,   -2.9,   -2.3,   -2.0,   -1.7,   -1.6,   -1.4,   -1.3,   -1.2,   -1.2,   -1.2,   -1.2,   -1.2,   -1.2,   -1.1,   -1.1,   -1.0,   -1.0,   -1.0,   -1.0,   -1.0,   -1.0,   -1.1,   -1.1,   -1.1,   -1.1,   -1.1,   -1.0,   -1.1,   -1.0,   -1.0,   -0.9,   -0.9,   -0.8,   -0.8,   -0.8
2000/06/11 04:50,   -4.9,   -5.2,   -5.4,   -5.5,   -5.5,   -5.5,   -5.6,   -5.8,   -5.8,   -5.8,   -4.4,   -2.5,   -2.2,   -1.9,   -1.8,   -1.5,   -1.4,   -1.4,   -1.3,   -1.3,   -1.3,   -1.3,   -1.3,   -1.3,   -1.2,   -1.1,   -1.1,   -1.0,   -1.0,   -1.0,   -1.0,   -1.1,   -1.1,   -1.2,   -1.2,   -1.2,   -1.2,   -1.1,   -1.0,   -1.0,   -1.0,   -0.9,   -0.9,   -0.9,   -0.8,   -0.7
2000/06/11 05:00,   -5.2,   -5.2,   -5.3,   -5.5,   -5.7,   -5.6,   -5.5,   -5.7,   -5.7,   -5.6,   -3.8,   -2.3,   -1.9,   -1.6,   -1.5,   -1.4,   -1.3,   -1.3,   -1.3,   -1.2,   -1.2,   -1.3,   -1.2,   -1.1,   -1.1,   -1.0,   -1.0,   -1.0,   -0.9,   -0.9,   -0.9,   -1.0,   -1.1,   -1.1,   -1.1,   -1.1,   -1.0,   -1.0,   -1.0,   -1.0,   -1.0,   -0.9,   -0.9,   -0.8,   -0.8,   -0.8
2000/06/11 05:10,   -5.2,   -5.1,   -5.2,   -5.1,   -5.2,   -5.2,   -5.1,   -5.2,   -5.3,   -5.2,   -3.5,   -2.2,   -1.9,   -1.7,   -1.6,  999.0,   -1.5,   -1.4,   -1.4,   -1.3,   -1.2,   -1.2,   -1.2,   -1.2,   -1.1,   -1.1,   -1.0,   -1.0,   -1.0,   -1.1,   -1.1,   -1.1,   -1.1,   -1.2,   -1.0,   -1.0,   -0.9,   -1.0,   -0.9,   -0.9,   -0.9,   -0.8,   -0.8,   -0.8,   -0.7,   -0.6
2000/06/11 05:20,   -5.0,   -4.9,   -4.9,   -5.0,   -5.1,   -5.0,   -5.0,   -4.9,   -5.0,   -5.1,   -3.7,   -2.2,   -1.9,   -1.6,   -1.8,   -1.6,   -1.6,   -1.5,   -1.4,   -1.4,   -1.3,   -1.3,   -1.3,   -1.2,   -1.2,   -1.1,   -1.1,   -1.2,   -1.2,   -1.1,   -1.1,   -1.2,   -1.2,   -1.2,   -1.1,   -1.1,   -1.1,   -1.0,   -1.0,   -1.0,   -0.9,   -1.0,   -0.9,   -0.8,   -0.8,   -0.7
2000/06/11 05:30,   -5.2,   -5.2,   -5.1,   -5.3,   -5.2,   -5.3,   -5.2,   -5.1,   -5.4,   -5.4,   -3.7,   -2.0,   -1.5,  999.0,   -1.6,  999.0,   -1.4,   -1.4,   -1.3,   -1.3,   -1.2,   -1.2,   -1.2,   -1.2,   -1.1,   -1.1,   -1.1,   -1.0,   -1.0,   -1.0,   -1.0,   -1.1,   -1.1,   -1.1,   -1.1,   -1.0,   -1.0,   -1.0,   -0.9,   -1.0,   -0.9,   -0.9,   -0.7,   -0.8,   -0.7,   -0.6
2000/06/11 05:40,   -5.2,   -5.3,   -5.3,   -5.3,   -5.4,   -5.4,   -5.5,   -5.5,   -5.5,   -5.7,   -4.0,   -2.3,  999.0,   -1.6,  999.0,   -1.4,   -1.4,   -1.4,   -1.4,   -1.3,   -1.3,   -1.3,   -1.2,   -1.2,   -1.1,   -1.1,   -1.1,   -1.0,   -1.0,   -1.1,   -1.1,   -1.1,   -1.1,   -1.1,   -1.1,   -1.1,   -1.0,   -1.0,   -1.0,   -0.9,   -0.9,   -0.8,   -0.7,   -0.7,   -0.7,   -0.6
2000/06/11 05:50,   -5.1,   -5.2,   -5.2,   -5.3,   -5.2,   -5.3,   -5.4,   -5.4,   -5.6,   -5.6,   -4.0,   -2.0,   -1.6,   -1.5,   -1.5,   -1.4,   -1.3,   -1.3,   -1.3,   -1.2,   -1.2,   -1.2,   -1.2,   -1.1,   -1.1,   -1.0,   -0.9,   -0.9,   -0.9,   -0.8,   -0.9,   -0.9,   -1.0,   -1.0,   -1.0,   -1.0,   -1.0,   -1.0,   -0.9,   -0.8,   -0.8,   -0.8,   -0.7,   -0.7,   -0.7,   -0.7
2000/06/11 06:00,   -5.0,   -5.1,   -5.2,   -5.4,   -5.2,   -5.2,   -5.1,   -5.3,   -5.4,   -5.3,   -3.8,   -2.0,   -1.6,   -1.6,   -1.5,   -1.5,   -1.4,   -1.4,   -1.4,   -1.3,   -1.3,   -1.3,   -1.3,   -1.2,   -1.2,   -1.1,   -1.1,   -1.0,   -1.0,   -1.0,   -1.0,   -1.1,   -1.0,   -1.1,   -1.0,   -1.0,   -1.0,   -1.0,   -0.9,   -0.9,   -0.8,   -0.8,   -0.8,   -0.8,   -0.8,   -0.7
2000/06/11 06:10,   -4.7,   -4.8,   -4.9,   -4.9,   -4.9,   -4.9,   -5.0,   -5.1,   -5.0,   -5.0,   -3.9,   -2.0,   -1.5,  999.0,   -1.5,   -1.5,   -1.4,   -1.4,   -1.4,   -1.3,   -1.3,   -1.3,   -1.3,   -1.2,   -1.2,   -1.1,   -1.1,   -1.1,   -1.1,   -1.1,   -1.1,   -1.1,   -1.1,   -1.1,   -1.0,   -1.0,   -1.0,   -0.9,   -0.9,   -0.9,   -0.9,   -0.9,   -0.8,   -0.8,   -0.8,   -0.7
2000/06/11 06:20,   -4.6,   -4.6,   -4.7,   -4.8,   -4.8,   -4.9,   -5.0,   -5.2,   -5.1,   -5.2,   -3.7,   -2.1,  999.0,  999.0,   -1.6,   -1.5,   -1.4,   -1.4,   -1.3,   -1.3,   -1.3,   -1.3,   -1.3,   -1.3,   -1.2,   -1.2,   -1.2,   -1.1,   -1.1,   -1.1,   -1.1,   -1.2,   -1.2,   -1.1,   -1.1,   -1.1,   -1.1,   -1.0,   -1.0,   -1.0,   -0.9,   -0.9,   -0.9,   -0.8,   -0.8,   -0.7
2000/06/11 06:30,   -4.6,   -4.7,   -4.7,   -4.8,   -4.9,   -4.9,   -4.9,   -5.0,   -5.1,   -5.1,   -3.9,   -2.1,   -1.8,   -1.6,   -1.5,   -1.4,   -1.4,   -1.4,   -1.4,   -1.3,   -1.3,   -1.3,   -1.3,   -1.2,   -1.2,   -1.2,   -1.2,   -1.3,   -1.2,   -1.2,   -1.3,   -1.3,   -1.3,   -1.3,   -1.2,   -1.2,   -1.2,   -1.1,   -1.1,   -1.1,   -1.1,   -1.0,   -0.9,   -0.9,   -0.8,   -0.8
2000/06/11 06:40,   -4.5,   -4.6,   -4.7,   -4.7,   -4.7,   -4.7,   -4.8,   -4.7,   -4.7,   -4.7,   -3.8,   -2.0,   -1.6,   -1.5,   -1.5,   -1.4,   -1.4,   -1.3,   -1.3,   -1.2,   -1.2,   -1.2,   -1.2,   -1.2,   -1.2,   -1.2,   -1.2,   -1.2,   -1.2,   -1.2,   -1.2,   -1.2,   -1.2,   -1.2,   -1.2,   -1.2,   -1.1,   -1.1,   -1.1,   -1.0,   -0.9,   -0.9,   -0.9,   -0.8,   -0.8,   -0.7
2000/06/11 06:50,   -4.3,   -4.4,   -4.5,   -4.5,   -4.5,   -4.5,   -4.6,   -4.6,   -4.6,   -4.6,   -3.7,   -2.0,  999.0,   -1.6,   -1.5,  999.0,   -1.4,   -1.4,   -1.4,   -1.3,   -1.3,   -1.3,   -1.3,   -1.3,   -1.3,   -1.2,   -1.3,   -1.3,   -1.2,   -1.3,   -1.2,   -1.3,   -1.2,   -1.2,   -1.2,   -1.2,   -1.1,   -1.1,   -1.1,   -1.0,   -1.0,   -1.0,   -1.0,   -1.0,   -0.9,   -0.8
2000/06/11 07:00,   -4.7,   -4.7,   -4.8,   -4.8,   -4.6,   -4.8,   -4.8,   -4.9,   -5.0,   -4.8,   -3.8,   -2.1,   -1.7,   -1.5,   -1.5,  999.0,  999.0,   -1.3,   -1.3,   -1.2,   -1.2,   -1.2,   -1.2,   -1.1,   -1.2,   -1.2,   -1.2,   -1.2,   -1.1,   -1.1,   -1.1,   -1.1,   -1.1,   -1.1,   -1.1,   -1.1,   -1.0,   -1.0,   -1.1,   -1.0,   -0.9,   -0.8,   -0.8,   -0.9,   -0.8,   -0.7
2000/06/11 07:10,   -4.6,   -4.7,   -4.7,   -4.6,   -4.6,   -4.7,   -4.7,   -4.8,   -5.0,   -4.9,   -4.5,   -2.5,  999.0,   -1.5,   -1.4,   -1.4,   -1.3,   -1.3,   -1.2,   -1.1,   -1.1,   -1.1,   -1.1,   -1.2,   -1.2,   -1.1,   -1.2,   -1.2,   -1.2,   -1.2,   -1.1,   -1.2,   -1.2,   -1.2,   -1.1,   -1.1,   -1.1,   -1.0,   -1.0,   -0.9,   -0.9,   -0.8,   -0.8,   -0.8,   -0.8,   -0.8
2000/06/11 07:20,   -4.4,   -4.3,   -4.4,   -4.4,   -4.4,   -4.6,   -4.7,   -4.7,   -4.8,   -5.0,   -4.7,   -2.2,  999.0,   -1.5,   -1.5,   -1.4,   -1.5,   -1.4,   -1.3,   -1.3,   -1.3,   -1.3,   -1.4,   -1.3,   -1.3,   -1.3,   -1.3,   -1.2,   -1.1,   -1.0,   -1.1,   -1.1,   -1.2,   -1.2,   -1.1,   -1.2,   -1.1,   -1.1,   -1.0,   -0.9,   -0.9,   -0.9,   -0.9,   -0.8,   -0.8,   -0.8
2000/06/11 07:30,   -4.8,   -4.9,   -5.0,   -5.0,   -5.1,   -5.2,   -5.2,   -5.4,   -5.5,   -5.4,   -5.1,  999.0,  999.0,  999.0,   -1.6,   -1.6,   -1.5,   -1.5,   -1.4,   -1.4,   -1.3,   -1.3,   -1.3,   -1.3,   -1.2,   -1.2,   -1.1,   -1.0,   -0.9,   -0.9,   -0.9,   -1.0,   -1.1,   -1.1,   -1.1,   -1.1,   -1.0,   -1.0,   -1.0,   -1.0,   -0.9,   -0.9,   -0.8,   -0.8,   -0.8,   -0.7
2000/06/11 07:40,   -5.1,   -5.2,   -5.3,   -5.3,   -5.3,   -5.3,   -5.4,   -5.5,   -5.5,   -5.3,   -5.1,  999.0,  999.0,   -1.6,   -1.5,   -1.5,   -1.5,   -1.4,   -1.3,   -1.3,   -1.3,   -1.3,   -1.4,   -1.3,   -1.3,   -1.2,   -1.1,   -1.1,   -1.1,   -1.1,   -1.1,   -1.1,   -1.1,   -1.1,   -1.2,   -1.1,   -1.1,   -1.0,   -1.0,   -1.0,   -0.9,   -0.9,   -0.9,   -0.8,   -0.7,   -0.7
2000/06/11 07:50,   -4.8,   -4.7,   -4.8,   -5.0,   -4.9,   -4.9,   -5.2,   -5.0,   -5.1,   -5.0,   -4.9,  999.0,   -1.7,   -1.5,   -1.5,   -1.6,   -1.4,   -1.4,   -1.4,   -1.4,   -1.4,   -1.4,   -1.4,   -1.3,   -1.3,   -1.1,   -1.1,   -1.1,   -1.0,   -1.1,   -1.1,   -1.1,   -1.1,   -1.1,   -1.0,   -1.0,   -1.0,   -1.0,   -1.0,   -1.0,   -0.9,   -0.9,   -0.9,   -0.8,   -0.8,   -0.7
2000/06/11 08:00,   -4.9,   -4.9,   -5.0,   -5.1,   -5.2,   -5.4,   -5.4,   -5.5,   -5.3,   -5.1,   -5.0,   -2.9,  999.0,   -1.6,   -1.5,   -1.5,   -1.5,   -1.4,   -1.4,   -1.5,   -1.5,   -1.4,   -1.3,   -1.3,   -1.2,   -1.2,   -1.1,   -1.1,   -1.0,   -1.0,   -1.0,   -1.1,   -1.2,   -1.2,   -1.2,   -1.1,   -1.1,   -1.0,   -1.0,   -1.0,   -0.9,   -0.9,   -0.8,   -0.8,   -0.8,   -0.8
2000/06/11 08:10,   -4.9,   -4.7,   -4.7,   -4.6,   -4.5,   -4.3,   -4.2,   -4.2,   -4.3,   -4.3,   -4.4,  999.0,  999.0,  999.0,   -1.5,   -1.4,   -1.4,   -1.4,   -1.4,   -1.4,   -1.4,   -1.4,   -1.3,   -1.3,   -1.3,   -1.3,   -1.2,   -1.2,   -1.2,   -1.2,   -1.2,   -1.2,   -1.3,   -1.3,   -1.3,   -1.3,   -1.2,   -1.2,   -1.1,   -1.1,   -1.1,   -1.0,   -1.0,   -0.9,   -0.9,   -0.8
2000/06/11 08:20,   -4.4,   -4.4,   -4.3,   -4.3,   -4.3,   -4.3,   -4.5,   -4.5,   -4.7,   -4.8,   -4.9,   -3.4,  999.0,   -1.6,   -1.5,   -1.5,   -1.5,   -1.5,   -1.5,   -1.4,   -1.4,   -1.4,   -1.4,   -1.4,   -1.3,   -1.3,   -1.3,   -1.3,   -1.3,   -1.3,   -1.3,   -1.3,   -1.3,   -1.3,   -1.3,   -1.2,   -1.2,   -1.1,   -1.1,   -1.1,   -1.1,   -1.0,   -0.9,   -0.8,   -0.7,   -0.6
2000/06/11 08:30,   -4.5,   -4.6,   -4.7,   -4.8,   -4.9,   -5.0,   -5.2,   -5.3,   -5.4,   -5.5,   -5.6,   -3.9,   -2.3,   -1.7,   -1.6,   -1.6,   -1.4,   -1.4,   -1.4,   -1.4,   -1.4,   -1.4,   -1.3,   -1.3,   -1.3,   -1.2,   -1.2,   -1.2,   -1.2,   -1.2,   -1.2,   -1.2,   -1.1,   -1.1,   -1.0,   -1.1,   -1.1,   -1.0,   -1.0,   -1.0,   -1.0,   -0.9,   -0.9,   -0.9,   -0.8,   -0.9
2000/06/11 08:40,   -4.8,   -4.9,   -5.0,   -4.9,   -5.0,   -4.9,   -4.9,   -5.0,   -5.0,   -5.1,   -5.2,   -4.2,   -2.4,   -2.0,   -1.7,   -1.5,   -1.5,   -1.4,   -1.3,   -1.4,   -1.3,   -1.3,   -1.3,   -1.2,   -1.3,   -1.3,   -1.2,   -1.2,   -1.2,   -1.2,   -1.2,   -1.2,   -1.3,   -1.2,   -1.3,   -1.2,   -1.2,   -1.2,   -1.1,   -1.0,   -0.9,   -0.9,   -0.9,   -0.9,   -0.8,   -0.8
2000/06/11 08:50,   -4.7,   -4.9,   -4.9,   -4.9,   -4.9,   -5.0,   -5.2,   -5.3,   -5.5,   -5.6,   -5.6,   -4.5,   -2.5,   -1.5,   -1.7,   -1.5,   -1.4,   -1.6,   -1.6,   -1.6,   -1.4,   -1.4,   -1.4,   -1.3,   -1.3,   -1.3,   -1.3,   -1.2,   -1.2,   -1.1,   -1.1,   -1.2,   -1.2,   -1.2,   -1.2,   -1.1,   -1.1,   -1.1,   -1.1,   -1.0,   -1.0,   -1.0,   -0.9,   -0.8,   -0.7,   -0.7
2000/06/11 09:00,   -5.5,   -5.4,   -5.5,   -5.5,   -5.5,   -5.3,   -5.4,   -5.0,   -5.3,   -5.5,   -5.5,   -4.5,  999.0,  999.0,  999.0,   -1.4,   -1.5,   -1.5,   -1.4,   -1.4,   -1.4,   -1.4,   -1.4,   -1.3,   -1.2,   -1.2,   -1.2,   -1.2,   -1.2,   -1.1,   -1.1,   -1.2,   -1.2,   -1.1,   -1.1,   -1.0,   -1.0,   -1.0,   -0.9,   -0.9,   -0.9,   -0.8,   -0.8,   -0.7,   -0.9,   -0.8
2000/06/11 09:10,   -4.2,   -4.4,   -4.5,   -4.6,   -4.5,   -4.5,   -4.6,   -4.7,   -5.0,   -5.3,   -5.3,   -4.8,   -2.9,   -2.0,   -1.8,   -1.6,   -1.5,   -1.4,   -1.3,   -1.2,   -1.3,   -1.3,   -1.2,   -1.2,   -1.2,   -1.2,   -1.1,   -1.1,   -1.1,   -1.0,   -1.0,   -1.0,   -1.0,   -1.0,   -1.0,   -0.9,   -0.9,   -0.9,   -0.9,   -0.8,   -0.8,   -0.7,   -0.7,   -0.8,   -0.6,   -0.7
2000/06/11 09:20,   -4.7,   -4.7,   -4.9,   -5.0,   -5.3,   -5.4,   -5.1,   -5.6,   -5.6,   -6.4,   -6.4,   -5.9,  999.0,  999.0,   -1.6,   -1.4,   -1.4,   -1.3,   -1.3,   -1.3,   -1.4,   -1.4,   -1.3,   -1.3,   -1.3,   -1.3,   -1.1,   -1.0,   -1.0,   -0.9,   -0.8,   -0.8,   -0.8,   -0.8,   -0.8,   -0.8,   -0.8,   -0.9,   -0.8,   -0.8,   -0.8,   -0.8,   -0.8,   -0.8,   -0.7,   -0.7
2000/06/11 09:30,   -5.5,   -5.8,   -5.9,   -6.0,   -6.1,   -6.1,   -6.2,   -6.2,   -6.4,   -6.6,   -6.9,   -5.9,   -3.2,   -2.1,   -1.6,   -1.3,   -1.3,   -1.3,   -1.3,   -1.3,   -1.2,   -1.1,   -1.0,   -1.0,   -0.9,   -0.9,   -0.8,   -0.7,   -0.7,   -0.6,   -0.7,   -0.7,   -0.8,   -0.8,   -0.8,   -0.8,   -0.8,   -0.8,   -0.8,   -0.7,   -0.7,   -0.7,   -0.8,   -0.6,  999.0,  999.0
2000/06/11 09:40,   -5.7,   -5.8,   -5.6,   -5.6,   -5.6,   -5.5,   -5.5,   -5.5,   -5.5,   -5.4,   -5.2,   -5.3,  999.0,   -1.8,   -1.5,   -1.4,   -1.2,   -1.2,   -1.2,   -1.2,   -1.1,   -1.0,   -1.0,   -0.9,   -0.9,   -0.8,   -0.6,   -0.6,   -0.6,   -0.6,   -0.7,   -0.7,   -0.7,   -0.7,   -0.7,   -0.7,   -0.8,   -0.7,   -0.7,   -0.7,   -0.8,   -0.7,   -0.6,   -0.6,   -0.6,   -0.5
2000/06/11 09:50,   -4.6,   -4.4,   -4.4,   -4.5,   -4.4,   -4.4,   -4.3,   -4.4,   -4.4,   -4.5,   -4.5,   -4.6,   -2.9,   -1.9,   -1.6,   -1.6,  999.0,   -1.4,   -1.4,   -1.3,   -1.3,   -1.2,   -1.1,   -1.1,   -1.0,   -0.9,   -0.9,   -0.8,   -0.8,   -0.8,   -0.9,   -0.9,   -0.9,   -0.9,   -0.9,   -0.9,   -0.8,   -0.8,   -0.7,   -0.7,   -0.6,   -0.7,   -0.7,  999.0,   -0.5,  999.0
2000/06/11 10:00,   -3.8,  999.0,  999.0,  999.0,   -3.6,   -3.7,   -3.4,   -3.7,   -3.8,   -4.0,   -3.6,   -3.4,  999.0,   -1.9,   -1.5,   -1.4,   -1.4,   -1.3,   -1.3,   -1.3,   -1.3,   -1.3,   -1.2,   -1.2,   -1.1,   -1.0,   -0.9,   -1.0,   -1.0,   -1.0,   -1.0,   -1.0,   -0.9,   -0.9,   -0.9,   -0.9,   -0.8,   -0.8,   -0.8,   -0.8,   -0.7,   -0.8,   -0.8,   -0.8,   -0.6,  999.0
2000/06/11 10:10,   -3.2,   -3.2,   -3.5,   -3.4,   -3.2,   -3.1,   -3.3,   -3.2,   -3.2,   -3.1,   -2.9,   -1.9,   -2.0,   -1.8,   -1.8,   -1.6,  999.0,  999.0,   -1.3,   -1.2,   -1.1,   -1.1,   -1.0,   -1.0,   -0.9,   -0.9,   -0.9,   -0.9,   -0.9,   -0.8,   -0.8,   -0.8,   -0.9,   -0.9,   -0.8,   -0.8,   -0.8,   -0.7,   -0.8,   -0.7,   -0.8,   -0.8,   -0.7,   -0.6,   -0.5,   -0.4
2000/06/11 10:20,   -2.4,   -2.5,   -3.0,   -3.2,   -2.6,   -3.7,   -3.8,   -3.5,   -3.0,   -3.5,   -3.6,   -2.5,   -2.0,   -2.0,   -1.9,   -1.5,   -1.4,   -1.2,   -1.3,   -1.3,   -1.2,   -1.2,   -1.1,   -1.1,   -1.0,   -1.0,   -1.0,   -1.0,   -1.0,   -1.0,   -1.0,   -1.0,   -1.0,   -0.9,   -0.9,   -0.9,   -0.9,   -0.8,   -0.8,   -0.7,   -0.8,   -0.7,   -0.7,   -0.6,   -0.6,   -0.6
2000/06/11 10:30,  999.0,   -2.7,  999.0,  999.0,  999.0,  999.0,   -2.1,   -2.7,   -2.6,   -2.1,   -2.5,   -1.6,   -2.0,   -1.7,   -1.5,   -1.5,   -1.3,   -1.2,   -1.3,   -1.2,   -1.2,   -1.1,   -1.1,   -1.1,   -1.1,   -1.1,   -1.1,   -1.0,   -0.9,   -0.9,   -0.9,   -0.9,   -0.9,   -0.9,   -0.8,   -0.9,   -0.9,   -0.9,   -0.9,   -0.8,   -0.8,   -0.8,   -0.8,   -0.8,   -0.6,   -0.7
2000/06/11 10:40,  999.0,  999.0,  999.0,  999.0,  999.0,  999.0,  999.0,  999.0,   -1.3,   -1.4,   -2.7,   -1.4,   -2.3,   -2.1,   -1.9,   -1.6,   -1.6,  999.0,   -1.4,   -1.3,   -1.3,   -1.3,   -1.2,   -1.1,   -1.0,   -1.0,   -1.0,   -1.0,   -0.9,   -0.9,   -0.9,   -0.9,   -0.9,   -0.9,   -1.0,   -1.0,   -1.0,   -0.9,   -0.9,   -1.0,   -0.9,   -0.9,   -0.9,   -0.8,   -0.8,   -0.8
2000/06/11 10:50,  999.0,  999.0,  999.0,  999.0,  999.0,   -4.0,   -3.4,   -3.2,   -3.2,   -3.0,   -2.3,   -2.0,   -2.4,   -2.0,   -1.7,   -1.5,   -1.5,   -1.4,   -1.4,   -1.3,   -1.2,   -1.2,   -1.2,   -1.2,   -1.1,   -1.1,   -1.1,   -1.1,   -1.0,   -1.0,   -1.0,   -1.1,   -1.1,   -1.1,   -1.1,   -1.1,   -1.0,   -1.0,   -1.0,   -0.9,   -0.9,   -0.8,   -0.7,   -0.7,   -0.7,   -0.8
2000/06/11 11:00,   -2.6,   -2.6,   -2.8,   -3.0,   -3.2,   -3.5,   -2.9,   -2.4,   -2.9,   -3.0,   -2.8,   -2.2,   -2.2,   -2.0,   -1.7,   -1.6,   -1.2,   -1.2,   -1.3,   -1.2,   -1.2,   -1.2,   -1.1,   -1.1,   -1.2,   -1.1,   -1.0,   -1.0,   -1.0,   -1.0,   -1.1,   -1.0,   -1.1,   -1.1,   -1.0,   -1.0,   -0.9,   -0.8,   -0.8,   -0.8,   -0.7,   -0.7,   -0.7,   -0.7,   -0.7,   -0.7
2000/06/11 11:10,   -0.1,  999.0,   -0.5,  999.0,   -0.5,   -0.6,   -0.5,   -0.0,    0.3,   -0.2,   -0.7,   -1.5,   -1.8,   -1.8,   -1.6,   -1.4,   -1.5,   -1.3,   -1.2,   -1.2,   -1.1,   -1.1,   -1.1,   -1.1,   -1.0,   -1.1,   -1.0,   -1.0,   -1.0,   -1.0,   -1.0,   -1.0,   -1.0,   -1.0,   -0.9,   -0.9,   -0.9,   -0.9,   -0.9,   -0.8,   -0.8,   -0.7,   -0.7,   -0.7,   -0.6,   -0.6
2000/06/11 11:20,   -0.1,    0.2,    0.0,  999.0,    0.2,    0.4,    0.1,    0.2,    0.6,    0.4,    0.2,   -0.5,  999.0,   -1.2,   -1.5,   -1.5,   -1.5,   -1.4,   -1.4,   -1.3,   -1.3,   -1.3,   -1.3,   -1.2,   -1.2,   -1.2,   -1.1,   -1.1,   -1.1,   -1.0,   -1.0,   -1.0,   -1.0,   -1.1,   -1.0,   -0.9,   -0.9,   -0.8,   -0.8,   -0.7,   -0.7,   -0.8,   -0.7,   -0.6,   -0.9,   -0.8
2000/06/11 11:30,    0.4,  999.0,    0.5,    0.6,    0.3,  999.0,  999.0,   -0.9,  999.0,  999.0,   -0.0,   -0.9,   -1.4,  999.0,   -1.3,   -1.4,   -1.7,   -1.5,   -1.5,   -1.4,   -1.4,   -1.3,   -1.3,   -1.3,   -1.2,   -1.1,   -1.1,   -1.0,   -1.0,   -1.0,   -1.0,   -1.0,   -1.0,   -1.0,   -1.1,   -1.0,   -0.9,   -0.8,   -0.7,   -0.7,   -0.7,   -0.7,   -0.6,   -0.6,   -0.6,   -0.6
2000/06/11 11:40,   -0.2,  999.0,    0.0,  999.0,  999.0,  999.0,   -0.4,   -0.4,   -0.4,   -0.2,   -0.1,    0.0,   -0.0,   -0.4,   -1.1,   -1.4,   -1.5,   -1.5,   -1.4,   -1.4,   -1.4,   -1.3,   -1.3,   -1.3,   -1.2,   -1.1,   -1.1,   -1.0,   -1.0,   -0.9,   -0.9,   -1.0,   -0.9,   -0.9,   -0.9,   -0.8,   -0.6,   -0.7,   -0.6,   -0.6,   -0.6,   -0.6,   -0.5,   -0.5,   -0.6,   -0.5
2000/06/11 11:50,   -0.5,   -0.2,   -0.1,   -0.1,   -0.5,   -0.3,   -0.4,   -0.2,  999.0,    0.1,    0.2,    0.3,   -0.2,   -1.2,   -1.5,   -1.6,   -1.6,   -1.6,   -1.5,   -1.4,   -1.4,   -1.4,   -1.4,   -1.3,   -1.2,   -1.2,   -1.1,   -1.1,   -1.1,   -1.1,   -1.1,   -1.1,   -1.0,   -1.0,   -1.0,   -0.9,   -0.8,   -0.9,   -0.8,   -0.8,   -0.8,   -0.7,   -0.7,   -0.5,   -0.6,   -0.7
2000/06/11 12:00,   -0.1,   -0.1,   -0.0,    0.0,   -0.1,  999.0,   -0.0,  999.0,   -0.1,   -0.2,   -0.0,    0.0,  999.0,   -0.4,   -1.0,   -1.4,   -1.4,   -1.4,   -1.5,   -1.5,   -1.5,   -1.4,   -1.4,   -1.3,   -1.2,   -1.1,   -1.2,   -1.2,   -1.1,   -1.1,   -1.1,   -1.0,   -1.1,   -1.1,   -1.2,  999.0,   -1.0,   -1.0,   -0.9,   -0.8,   -0.8,   -0.8,   -0.6,   -0.6,   -0.6,   -0.5
2000/06/11 12:10,  999.0,   -0.1,   -0.1,   -0.1,  999.0,   -0.1,   -0.0,  999.0,   -0.2,   -0.4,    0.1,    0.3,    0.3,   -0.2,   -0.6,   -1.2,   -1.3,   -1.2,   -1.3,   -1.4,   -1.2,   -1.2,   -1.1,   -1.1,   -0.9,   -0.9,   -0.9,   -0.9,   -0.9,   -0.9,   -0.9,   -0.9,   -0.9,   -0.9,   -0.9,   -0.8,   -0.8,   -0.7,   -0.7,   -0.7,   -0.6,   -0.5,   -0.5,   -0.4,   -0.4,   -0.3
2000/06/11 12:20,  999.0,   -0.4,   -0.2,   -0.3,   -0.4,  999.0,   -0.3,   -0.4,   -0.3,   -0.2,   -0.2,  999.0,   -0.4,   -0.3,   -0.1,    0.1,   -0.1,   -0.1,   -1.2,   -1.4,   -1.4,   -1.2,   -1.4,   -1.3,   -1.2,   -1.3,   -1.2,   -1.2,   -1.2,   -1.2,   -1.2,   -1.0,   -1.0,   -1.0,   -1.0,   -0.9,   -0.9,   -0.8,   -0.7,   -0.7,   -0.7,   -0.6,   -0.7,   -0.5,   -0.5,   -0.5
2000/06/11 12:30,  999.0,   -0.0,   -0.0,  999.0,   -0.1,    0.1,  999.0,   -0.1,  999.0,   -0.1,   -0.0,    0.1,    0.0,    0.3,    0.1,    0.1,   -0.2,   -0.3,   -1.5,   -1.3,   -1.4,   -1.4,   -1.4,   -1.2,   -1.2,   -1.2,   -1.2,   -1.2,   -1.1,   -1.1,   -1.1,   -1.1,   -1.1,   -1.1,   -1.2,   -1.1,   -1.0,   -1.0,   -0.8,   -0.8,   -0.8,   -0.7,   -0.7,   -0.6,   -0.6,   -0.6
2000/06/11 12:40,   -0.4,   -0.0,   -0.0,    0.1,    0.1,    0.1,    0.2,  999.0,   -0.1,   -0.2,   -0.1,  999.0,    0.0,  999.0,    0.1,   -0.0,   -0.5,   -1.0,   -1.5,   -1.3,   -1.3,   -1.3,   -1.2,   -1.2,   -1.1,   -1.2,   -1.1,   -1.1,   -1.0,   -1.1,   -1.1,   -1.2,   -1.3,   -1.3,   -1.2,   -1.1,   -1.1,   -1.1,   -1.0,   -1.0,   -1.0,   -0.9,   -0.9,   -0.8,   -0.6,   -0.9
2000/06/11 12:50,    0.1,   -0.2,  999.0,   -0.2,   -0.0,   -0.3,   -0.2,  999.0,  999.0,   -0.3,   -0.6,   -0.4,  999.0,   -0.5,  999.0,   -0.2,   -0.7,   -1.5,   -1.4,   -1.4,   -1.2,   -1.1,   -1.0,   -1.0,   -1.0,   -1.1,   -1.1,   -1.1,   -1.1,   -1.1,   -1.2,   -1.2,   -1.2,   -1.2,   -1.1,   -1.0,   -1.0,   -0.9,   -0.9,   -0.8,   -0.7,   -0.8,   -0.5,   -0.6,   -0.6,   -0.4
2000/06/11 13:00,    0.1,    0.2,   -0.0,  999.0,  999.0,    0.1,   -0.0,   -0.0,   -0.2,   -0.2,  999.0,    0.1,   -0.2,   -0.1,   -0.2,   -0.5,   -0.8,   -1.4,   -1.5,   -1.6,   -1.3,   -1.2,   -1.2,   -1.1,   -1.1,   -1.1,   -1.0,   -1.1,   -1.0,   -1.0,   -1.0,   -1.0,   -1.1,   -1.0,   -1.0,   -0.9,   -0.8,   -0.8,   -0.8,   -0.7,   -0.6,   -0.6,   -0.5,   -0.3,  999.0,  999.0
2000/06/11 13:10,   -0.2,    0.1,   -0.0,    0.2,    0.0,    0.0,   -0.2,  999.0,   -0.2,   -0.4,    0.0,  999.0,   -0.2,   -0.2,    0.2,   -0.0,    0.2,    0.0,   -1.0,   -1.2,   -1.4,   -1.3,   -1.2,   -1.2,   -1.2,   -1.1,   -1.2,   -1.1,   -1.2,   -1.2,   -1.3,   -1.2,   -1.2,   -1.1,   -1.1,   -0.9,   -0.9,   -0.8,   -0.8,   -0.7,   -0.7,   -0.6,   -0.6,   -0.6,   -0.5,   -0.6
2000/06/11 13:20,  999.0,    0.3,    0.2,    0.2,    0.1,   -0.1,   -0.1,  999.0,   -0.4,   -0.1,   -0.4,    0.1,    0.1,    0.3,   -0.1,   -0.2,   -0.1,   -0.1,   -0.4,   -1.2,   -1.4,   -1.6,   -1.3,   -1.2,   -1.2,   -1.1,   -1.2,   -1.3,   -1.2,   -1.3,   -1.2,   -1.2,   -1.0,   -1.0,   -0.9,   -1.0,   -0.9,   -0.9,   -1.0,   -1.0,   -0.9,   -0.9,   -0.9,   -0.9,   -0.8,   -0.5
2000/06/11 13:30,  999.0,    0.3,    0.5,    0.3,    0.1,   -0.1,  999.0,  999.0,   -0.1,   -0.2,   -0.4,    0.1,  999.0,   -0.0,  999.0,   -0.1,   -0.1,   -0.3,   -0.2,   -1.2,   -1.4,   -1.4,   -1.3,   -1.3,   -1.2,   -1.2,   -1.1,   -1.1,   -1.1,   -1.2,   -1.1,   -1.1,   -1.3,   -1.2,   -1.1,   -1.0,   -1.0,   -0.9,   -0.9,   -0.9,   -0.9,   -0.8,   -0.7,   -0.7,   -0.7,   -0.5
2000/06/11 13:40,    0.3,    0.3,    0.3,    0.2,    0.3,    0.3,  999.0,    0.1,   -0.1,   -0.2,   -0.1,   -0.2,  999.0,   -0.2,   -0.2,    0.1,    0.2,   -0.5,   -1.2,   -1.3,   -1.4,   -1.2,   -1.3,   -1.3,   -1.3,   -1.2,   -1.2,   -1.2,   -1.1,   -1.0,   -1.2,   -1.1,   -1.2,   -1.0,   -1.1,   -1.1,   -1.1,   -1.0,   -0.9,   -0.9,   -0.8,   -0.8,   -0.7,  999.0,   -0.7,   -0.6
2000/06/11 13:50,  999.0,    0.0,    0.2,   -0.0,  999.0,  999.0,   -0.6,   -0.2,    0.0,   -0.1,  999.0,   -0.1,  999.0,  999.0,    0.4,   -0.1,  999.0,   -0.3,   -0.0,   -0.4,   -0.9,   -1.4,   -1.4,   -1.4,   -1.3,   -1.2,   -1.2,   -1.2,   -1.2,   -1.2,   -1.2,   -1.2,   -1.1,   -1.1,   -1.0,   -1.0,   -0.9,   -0.7,   -0.7,   -0.7,   -0.7,   -0.7,   -0.6,   -0.6,   -0.5,   -0.4
2000/06/11 14:00,  999.0,  999.0,    0.3,    0.3,  999.0,   -0.1,  999.0,    0.1,    0.2,    0.1,    0.1,    0.2,  999.0,  999.0,    0.3,    0.4,  999.0,    0.3,    0.0,    0.1,   -0.1,   -0.7,   -1.1,   -1.3,   -1.0,   -1.0,   -1.0,   -1.1,   -1.1,   -1.1,   -1.2,   -1.1,   -1.1,   -1.0,   -1.0,   -0.8,   -0.8,   -0.8,   -0.8,   -0.8,   -0.7,   -0.7,   -0.7,   -0.6,   -0.6,   -0.6
2000/06/11 14:10,  999.0,  999.0,    0.2,  999.0,  999.0,  999.0,  999.0,  999.0,   -0.2,  999.0,    0.0,  999.0,  999.0,  999.0,  999.0,   -0.2,   -0.1,   -0.2,   -0.0,   -0.2,   -0.7,   -1.0,   -1.2,   -1.2,   -1.3,   -1.1,   -1.1,   -1.0,   -1.1,   -1.0,   -1.1,   -1.1,   -1.0,   -1.0,   -1.0,   -1.0,   -1.0,   -0.9,   -0.9,   -0.9,   -0.8,   -0.8,   -0.6,   -0.6,   -0.6,   -0.5
2000/06/11 14:20,  999.0,    0.1,    0.1,  999.0,  999.0,    0.1,  999.0,    0.3,    0.2,    0.0,   -0.1,   -0.2,   -0.3,  999.0,    0.2,  999.0,   -0.2,    0.0,   -0.1,    0.0,   -0.6,   -0.9,   -1.5,   -1.4,   -1.3,   -1.1,   -1.0,   -1.0,   -1.0,   -1.0,   -1.0,   -1.0,   -1.0,   -1.0,   -1.0,   -1.0,   -1.0,   -0.9,   -0.9,   -0.8,   -0.7,   -0.6,   -0.6,   -0.6,   -0.5,   -0.5
2000/06/11 14:30,  999.0,   -0.3,  999.0,   -0.2,  999.0,    0.0,  999.0,    0.3,   -0.1,   -0.3,   -0.3,   -0.3,  999.0,  999.0,    0.2,   -0.1,  999.0,    0.1,   -0.3,   -0.1,  999.0,   -0.2,   -0.8,   -0.9,   -1.1,   -1.0,   -0.9,   -1.1,   -0.9,   -1.0,   -1.0,   -0.9,   -0.9,   -1.1,   -0.9,   -1.0,   -1.0,   -1.0,   -0.9,   -0.8,   -0.8,   -0.7,   -0.6,   -0.6,   -0.5,   -0.4
2000/06/11 14:40,    0.1,    0.2,    0.3,    0.1,    0.1,  999.0,  999.0,  999.0,    0.1,  999.0,    0.0,   -0.1,   -0.0,  999.0,  999.0,  999.0,  999.0,  999.0,    0.2,  999.0,  999.0,    0.0,   -0.2,  999.0,   -0.5,   -0.6,   -1.1,   -0.9,   -0.8,   -0.8,   -0.8,   -0.9,   -1.1,   -1.2,   -1.2,   -1.2,   -1.1,   -1.0,   -1.0,   -1.0,   -1.0,   -0.9,   -0.8,   -0.7,   -0.6,   -0.6
2000/06/11 14:50,  999.0,    0.3,    0.2,    0.2,    0.2,    0.1,  999.0,   -0.0,   -0.2,   -0.0,   -0.0,   -0.2,  999.0,   -0.3,  999.0,  999.0,  999.0,   -0.2,  999.0,  999.0,  999.0,   -0.3,  999.0,  999.0,  999.0,   -0.0,   -0.1,   -0.7,   -0.7,   -0.4,   -0.4,   -0.6,   -0.8,   -1.0,   -1.0,   -1.0,   -1.1,   -1.0,   -0.9,   -0.9,   -0.7,   -0.8,   -0.6,   -0.4,   -0.4,   -0.4
2000/06/11 15:00,    0.2,   -0.2,   -0.2,   -0.1,  999.0,   -0.1,   -0.0,   -0.2,   -0.1,   -0.0,  999.0,   -0.0,  999.0,  999.0,   -0.2,  999.0,  999.0,  999.0,  999.0,   -0.4,  999.0,  999.0,  999.0,  999.0,   -0.1,   -0.1,   -0.4,   -0.5,   -0.6,   -0.3,   -0.1,   -0.1,   -0.9,   -1.1,   -1.1,   -1.0,   -1.0,   -1.0,   -0.9,   -0.8,   -0.7,   -0.7,   -0.6,   -0.6,   -0.5,   -0.4
2000/06/11 15:10,   -0.1,   -0.2,   -0.3,    0.1,  999.0,    0.1,  999.0,   -0.0,  999.0,   -0.1,  999.0,   -0.0,  999.0,  999.0,   -0.1,  999.0,   -0.1,  999.0,  999.0,    0.2,  999.0,  999.0,  999.0,  999.0,    0.2,    0.2,   -0.0,   -0.1,   -0.3,   -0.2,   -0.3,    0.1,   -0.1,   -0.9,   -1.0,   -1.0,   -1.0,   -1.0,   -0.9,   -0.8,   -0.7,   -0.7,   -0.4,   -0.6,   -0.5,  999.0
2000/06/11 15:20,    0.6,    1.3,    0.7,    0.9,   -0.2,   -0.3,   -0.1,    0.1,  999.0,   -0.1,  999.0,   -0.0,  999.0,  999.0,   -0.1,  999.0,   -0.0,   -0.0,  999.0,   -0.0,  999.0,  999.0,  999.0,  999.0,  999.0,   -0.1,    0.1,   -0.1,   -0.3,   -0.4,   -0.1,   -0.1,    0.0,   -0.4,   -0.6,   -0.9,   -0.9,   -0.8,   -0.8,   -0.7,   -0.7,   -0.6,   -0.6,   -0.4,  999.0,  999.0
2000/06/11 15:30,   -0.4,   -0.9,   -0.6,   -0.1,   -0.6,   -0.3,   -0.2,   -0.2,   -0.2,   -0.1,  999.0,   -0.1,  999.0,   -0.0,  999.0,  999.0,  999.0,   -0.0,  999.0,   -0.1,  999.0,  999.0,  999.0,  999.0,  999.0,  999.0,   -0.1,   -0.0,   -0.0,   -0.2,   -0.1,   -0.1,  999.0,  999.0,  999.0,   -0.2,   -0.6,   -0.7,   -0.6,   -0.6,   -0.9,   -0.9,   -0.8,   -0.5,  999.0,  999.0
2000/06/11 15:40,   -0.3,   -0.2,   -0.4,   -0.2,   -0.5,   -0.3,   -0.1,   -0.3,   -0.2,   -0.2,   -0.2,  999.0,  999.0,  999.0,  999.0,  999.0,  999.0,  999.0,  999.0,   -0.3,  999.0,  999.0,  999.0,  999.0,  999.0,  999.0,   -0.2,   -0.1,   -0.3,   -0.2,   -0.1,  999.0,  999.0,  999.0,  999.0,  999.0,   -0.6,   -0.9,   -0.8,   -0.8,   -0.7,   -0.8,  999.0,  999.0,  999.0,  999.0
2000/06/11 15:50,    0.3,    0.4,    0.4,   -0.3,  999.0,    0.1,  999.0,   -0.4,   -0.2,  999.0,   -0.3,   -0.1,  999.0,   -0.1,  999.0,  999.0,  999.0,    0.0,    0.1,  999.0,  999.0,  999.0,  999.0,  999.0,  999.0,  999.0,    0.1,   -0.0,   -0.5,   -0.3,   -0.3,   -0.0,    0.0,   -0.2,   -0.5,  999.0,   -0.8,   -0.8,   -0.8,   -0.8,   -0.6,   -0.5,  999.0,  999.0,  999.0,  999.0
2000/06/11 16:00,   -0.3,   -0.4,   -0.5,   -0.4,  999.0,  999.0,  999.0,   -0.1,  999.0,    0.1,   -0.2,   -0.0,  999.0,  999.0,   -0.1,  999.0,  999.0,   -0.1,  999.0,  999.0,  999.0,  999.0,  999.0,  999.0,  999.0,  999.0,    0.1,   -0.2,   -0.3,   -0.4,   -0.1,   -0.0,  999.0,   -0.1,  999.0,   -0.6,   -0.8,   -1.0,   -0.8,   -0.8,   -0.7,   -0.7,   -0.5,   -0.6,   -0.5,  999.0
2000/06/11 16:10,   -0.2,    0.0,   -0.5,   -0.8,   -0.7,  999.0,    0.2,  999.0,    0.1,   -0.1,   -0.1,  999.0,  999.0,   -0.1,   -0.1,  999.0,  999.0,    0.1,  999.0,  999.0,  999.0,  999.0,  999.0,  999.0,  999.0,  999.0,   -0.2,   -0.1,   -0.1,   -0.2,   -0.0,  999.0,  999.0,   -0.2,   -0.2,   -0.9,   -1.0,   -1.0,   -0.9,   -0.9,   -0.8,   -0.8,   -0.7,   -0.6,   -0.6,   -0.6
2000/06/11 16:20,  999.0,   -0.2,   -0.3,   -0.0,   -0.1,   -0.2,   -0.2,   -0.0,   -0.1,   -0.1,   -0.0,   -0.2,    0.1,  999.0,    0.2,  999.0,  999.0,  999.0,  999.0,  999.0,  999.0,  999.0,  999.0,  999.0,  999.0,  999.0,  999.0,    0.0,  999.0,    0.0,    0.1,  999.0,  999.0,  999.0,  999.0,   -0.9,   -0.9,   -1.2,   -1.1,   -1.1,   -1.0,   -0.8,   -0.8,   -0.7,   -0.5,   -0.4
2000/06/11 16:30,  999.0,   -0.3,   -0.1,   -0.1,   -0.1,   -0.1,   -0.1,  999.0,  999.0,    0.0,  999.0,   -0.0,   -0.1,    0.0,  999.0,  999.0,  999.0,  999.0,  999.0,  999.0,  999.0,  999.0,  999.0,  999.0,  999.0,  999.0,  999.0,    0.2,  999.0,    0.1,    0.2,  999.0,  999.0,  999.0,  999.0,  999.0,  999.0,   -0.7,   -0.7,  999.0,   -0.9,   -0.8,   -0.7,   -0.5,   -0.5,   -0.5
2000/06/11 16:40,    0.0,    0.1,    0.0,   -0.1,   -0.3,   -0.2,   -0.0,   -0.1,  999.0,   -0.2,   -0.0,    0.1,  999.0,   -0.1,  999.0,  999.0,  999.0,  999.0,  999.0,  999.0,  999.0,  999.0,  999.0,  999.0,  999.0,  999.0,  999.0,    0.1,  999.0,  999.0,   -0.0,  999.0,  999.0,  999.0,  999.0,  999.0,  999.0,  999.0,   -0.6,  999.0,   -0.8,   -0.7,   -0.6,   -0.6,   -0.6,   -0.5
2000/06/11 16:50,    0.2,   -0.2,   -0.5,   -0.3,   -0.1,    0.0,    0.0,   -0.0,   -0.1,   -0.1,   -0.1,  999.0,  999.0,   -0.2,  999.0,  999.0,  999.0,  999.0,  999.0,  999.0,  999.0,  999.0,  999.0,  999.0,  999.0,  999.0,  999.0,    0.4,  999.0,  999.0,  999.0,  999.0,  999.0,  999.0,  999.0,  999.0,  999.0,  999.0,  999.0,   -0.7,   -0.7,   -0.6,   -0.7,   -0.7,   -0.6,   -0.5
2000/06/11 17:00,    0.2,   -0.3,   -0.4,  999.0,  999.0,   -0.1,    0.0,   -0.1,  999.0,   -0.1,  999.0,  999.0,  999.0,  999.0,  999.0,  999.0,   -0.1,  999.0,  999.0,  999.0,  999.0,  999.0,  999.0,  999.0,  999.0,  999.0,  999.0,  999.0,  999.0,  999.0,   -0.0,  999.0,  999.0,  999.0,  999.0,  999.0,  999.0,  999.0,  999.0,  999.0,  999.0,   -0.9,   -0.7,   -0.7,   -0.5,   -0.6
2000/06/11 17:10,   -0.1,  999.0,   -0.2,   -0.1,   -0.2,   -0.1,   -0.1,  999.0,    0.0,  999.0,   -0.1,    0.1,  999.0,    0.0,  999.0,  999.0,  999.0,   -0.1,  999.0,  999.0,  999.0,  999.0,  999.0,  999.0,  999.0,  999.0,  999.0,  999.0,  999.0,  999.0,    0.1,  999.0,  999.0,  999.0,  999.0,  999.0,  999.0,  999.0,  999.0,   -1.0,   -1.0,   -1.0,   -1.0,   -0.8,   -0.7,   -0.6
2000/06/11 17:20,    0.1,  999.0,    0.3,    0.3,    0.1,    0.0,  999.0,  999.0,  999.0,  999.0,  999.0,  999.0,   -0.2,   -0.2,  999.0,  999.0,   -0.0,    0.1,  999.0,  999.0,  999.0,  999.0,  999.0,  999.0,  999.0,  999.0,  999.0,  999.0,  999.0,   -0.0,   -0.1,  999.0,  999.0,  999.0,  999.0,  999.0,  999.0,  999.0,   -0.9,   -1.1,   -1.2,   -1.2,   -1.0,   -0.8,   -0.7,   -0.4
2000/06/11 17:30,   -0.1,   -0.1,    0.1,  999.0,   -0.0,   -0.1,    0.1,  999.0,  999.0,  999.0,  999.0,    0.1,  999.0,   -0.1,   -0.3,  999.0,   -0.0,   -0.1,  999.0,  999.0,  999.0,  999.0,  999.0,  999.0,  999.0,  999.0,  999.0,  999.0,   -0.3,    0.0,    0.0,  999.0,  999.0,  999.0,  999.0,  999.0,   -0.6,   -1.0,   -0.9,   -1.1,   -1.0,   -1.0,   -0.8,   -0.6,   -0.4,   -0.3
2000/06/11 17:40,  999.0,   -0.1,  999.0,  999.0,   -0.0,  999.0,  999.0,  999.0,   -0.0,    0.0,  999.0,  999.0,  999.0,  999.0,  999.0,  999.0,  999.0,    0.2,  999.0,  999.0,  999.0,  999.0,  999.0,  999.0,  999.0,  999.0,  999.0,  999.0,   -0.2,    0.1,    0.1,  999.0,  999.0,  999.0,  999.0,  999.0,  999.0,   -0.8,   -0.8,   -0.8,   -0.6,   -0.6,   -0.4,   -0.5,   -0.5,   -0.4
2000/06/11 17:50,  999.0,   -0.1,  999.0,  999.0,   -0.1,   -0.0,  999.0,  999.0,   -0.1,   -0.2,   -0.1,  999.0,  999.0,  999.0,  999.0,   -0.1,   -0.0,   -0.0,  999.0,  999.0,  999.0,  999.0,  999.0,  999.0,  999.0,  999.0,  999.0,  999.0,   -0.0,   -0.1,    0.1,  999.0,  999.0,  999.0,  999.0,   -0.8,  999.0,   -1.0,   -1.0,   -1.0,   -1.0,   -0.9,   -0.7,   -0.6,   -0.5,   -0.4
2000/06/11 18:00,  999.0,  999.0,  999.0,   -0.1,   -0.1,   -0.1,  999.0,  999.0,    0.0,    0.0,   -0.0,  999.0,  999.0,  999.0,  999.0,  999.0,  999.0,    0.2,  999.0,  999.0,  999.0,  999.0,  999.0,  999.0,  999.0,  999.0,  999.0,    0.0,    0.0,   -0.0,    0.0,  999.0,  999.0,  999.0,  999.0,  999.0,  999.0,   -1.2,   -1.1,   -1.0,   -0.9,   -0.8,   -0.8,   -0.7,   -0.6,   -0.6
2000/06/11 18:10,  999.0,  999.0,  999.0,  999.0,   -0.2,   -0.1,  999.0,   -0.1,  999.0,   -0.0,  999.0,  999.0,    0.1,  999.0,  999.0,   -0.1,  999.0,  999.0,  999.0,  999.0,  999.0,  999.0,  999.0,  999.0,  999.0,  999.0,  999.0,  999.0,    0.1,    0.1,  999.0,   -0.0,  999.0,  999.0,  999.0,   -1.0,   -1.1,   -0.9,   -0.9,   -0.9,   -0.7,   -0.6,   -0.5,   -0.5,   -0.4,   -0.4
2000/06/11 18:20,  999.0,   -0.1,    0.1,   -0.0,   -0.0,  999.0,  999.0,   -0.0,   -0.0,  999.0,  999.0,  999.0,    0.1,  999.0,  999.0,    0.0,  999.0,  999.0,  999.0,  999.0,  999.0,  999.0,  999.0,  999.0,  999.0,  999.0,  999.0,  999.0,    0.2,    0.2,  999.0,    0.1,    0.0,   -0.3,   -0.6,   -0.7,   -1.0,   -1.0,   -0.8,   -0.7,   -0.6,   -0.4,   -0.5,   -0.6,   -0.6,   -0.4
2000/06/11 18:30,  999.0,  999.0,    0.1,  999.0,  999.0,    0.0,   -0.2,  999.0,  999.0,  999.0,  999.0,   -0.1,  999.0,  999.0,   -0.1,  999.0,  999.0,  999.0,  999.0,  999.0,  999.0,  999.0,  999.0,  999.0,  999.0,  999.0,  999.0,  999.0,    0.0,   -0.0,  999.0,  999.0,  999.0,   -0.3,   -0.5,   -0.6,   -0.7,   -0.8,   -0.7,   -0.6,   -0.5,   -0.4,   -0.4,   -0.4,   -0.4,   -0.5
2000/06/11 18:40,  999.0,    0.2,    0.1,    0.1,  999.0,   -0.1,   -0.0,  999.0,   -0.0,   -0.0,  999.0,   -0.1,  999.0,    0.0,  999.0,  999.0,  999.0,    0.0,  999.0,  999.0,  999.0,  999.0,  999.0,  999.0,  999.0,  999.0,  999.0,    0.2,    0.1,    0.2,  999.0,   -0.5,   -0.5,   -0.3,   -0.5,   -0.9,   -1.0,   -0.9,   -0.9,   -0.9,   -0.8,   -0.7,   -0.6,   -0.5,   -0.5,   -0.4
2000/06/11 18:50,  999.0,  999.0,    0.1,    0.1,  999.0,    0.1,    0.1,   -0.2,    0.2,  999.0,  999.0,   -0.0,    0.1,   -0.1,  999.0,    0.1,  999.0,  999.0,  999.0,  999.0,  999.0,  999.0,  999.0,  999.0,  999.0,  999.0,  999.0,   -0.0,    0.0,   -0.3,  999.0,  999.0,   -0.6,   -0.5,   -0.7,   -1.0,   -1.2,   -0.8,   -0.7,   -0.8,   -0.7,   -0.6,   -0.7,   -0.5,   -0.6,   -0.5
2000/06/11 19:00,  999.0,    0.1,    0.2,    0.0,  999.0,    0.1,    0.1,    0.1,    0.2,  999.0,  999.0,  999.0,    0.1,  999.0,  999.0,    0.2,  999.0,  999.0,  999.0,  999.0,  999.0,  999.0,  999.0,  999.0,  999.0,  999.0,  999.0,   -0.0,    0.1,    0.0,    0.0,    0.1,   -0.4,   -0.6,   -0.7,   -0.7,   -0.8,   -0.8,   -0.7,   -0.7,   -0.6,   -0.6,   -0.6,   -0.5,   -0.4,   -0.3
2000/06/11 19:10,    0.1,    0.1,  999.0,    0.1,  999.0,  999.0,    0.3,  999.0,    0.1,  999.0,  999.0,    0.1,   -0.0,   -0.1,   -0.1,  999.0,  999.0,  999.0,  999.0,  999.0,  999.0,  999.0,  999.0,  999.0,  999.0,  999.0,  999.0,   -0.1,    0.0,    0.1,    0.1,  999.0,  999.0,   -0.7,   -0.8,   -0.9,   -0.8,   -0.8,   -0.8,   -0.8,   -0.6,   -0.6,   -0.5,   -0.3,  999.0,  999.0
2000/06/11 19:20,  999.0,    0.2,    0.3,    0.3,    0.3,    0.2,    0.2,    0.2,  999.0,    0.1,  999.0,   -0.0,   -0.1,  999.0,  999.0,   -0.1,  999.0,  999.0,  999.0,  999.0,  999.0,  999.0,  999.0,  999.0,  999.0,  999.0,  999.0,   -0.1,  999.0,    0.0,  999.0,  999.0,  999.0,  999.0,  999.0,   -0.9,  999.0,  999.0,  999.0,   -0.9,   -0.7,   -0.7,   -0.5,   -0.6,   -0.6,  999.0
2000/06/11 19:30,    0.1,    0.1,    0.1,    0.2,    0.1,    0.1,    0.2,  999.0,  999.0,    0.1,  999.0,  999.0,   -0.1,    0.0,    0.1,   -0.2,  999.0,   -0.0,  999.0,  999.0,  999.0,  999.0,  999.0,  999.0,  999.0,  999.0,  999.0,   -0.0,    0.1,   -0.2,  999.0,  999.0,  999.0,   -0.1,  999.0,   -0.5,  999.0,   -0.5,   -0.6,   -0.6,   -0.6,   -0.4,  999.0,  999.0,  999.0,  999.0
2000/06/11 19:40,    0.3,  999.0,    0.2,  999.0,  999.0,  999.0,    0.0,  999.0,  999.0,   -0.1,  999.0,  999.0,   -0.1,    0.1,   -0.0,  999.0,   -0.2,  999.0,  999.0,  999.0,  999.0,  999.0,  999.0,  999.0,  999.0,  999.0,  999.0,    0.1,    0.1,    0.1,  999.0,  999.0,  999.0,  999.0,  999.0,  999.0,   -0.6,   -0.8,   -0.6,   -0.7,   -0.5,   -0.8,   -0.6,   -0.8,   -0.7,  999.0
2000/06/11 19:50,  999.0,  999.0,    0.6,    0.5,    0.1,    0.2,  999.0,  999.0,  999.0,    0.1,  999.0,    0.1,  999.0,    0.1,  999.0,  999.0,    0.1,  999.0,  999.0,  999.0,  999.0,  999.0,  999.0,  999.0,  999.0,  999.0,  999.0,    0.3,  999.0,    0.1,  999.0,  999.0,   -0.1,   -0.5,   -0.8,   -1.0,   -0.9,   -1.0,   -0.9,   -0.8,   -0.8,   -0.7,   -0.6,   -0.7,   -0.6,   -0.6
2000/06/11 20:00,    0.3,  999.0,   -0.1,    0.2,  999.0,   -0.1,   -0.0,    0.0,  999.0,  999.0,  999.0,  999.0,  999.0,   -0.0,  999.0,   -0.1,  999.0,  999.0,  999.0,  999.0,  999.0,  999.0,  999.0,  999.0,  999.0,  999.0,  999.0,  999.0,  999.0,    0.0,  999.0,   -0.1,   -0.3,   -0.8,   -0.9,   -1.0,   -1.0,   -1.0,   -1.0,   -1.0,   -0.9,   -0.8,   -0.7,   -0.6,   -0.7,   -0.6
2000/06/11 20:10,  999.0,   -0.2,   -0.3,  999.0,    0.2,  999.0,    0.2,  999.0,  999.0,  999.0,  999.0,  999.0,    0.0,  999.0,   -0.0,   -0.1,   -0.1,  999.0,  999.0,  999.0,  999.0,  999.0,  999.0,  999.0,  999.0,  999.0,  999.0,  999.0,    0.0,   -0.0,  999.0,   -0.2,   -0.6,   -0.7,   -0.7,   -0.7,   -0.6,   -0.8,   -0.8,   -0.8,   -0.8,   -0.8,   -0.7,   -0.7,   -0.6,   -0.6
2000/06/11 20:20,  999.0,  999.0,  999.0,    0.2,  999.0,  999.0,    0.2,  999.0,  999.0,  999.0,   -0.1,   -0.1,    0.0,  999.0,  999.0,   -0.0,    0.1,  999.0,  999.0,  999.0,  999.0,  999.0,  999.0,  999.0,  999.0,  999.0,  999.0,  999.0,  999.0,  999.0,  999.0,  999.0,  999.0,   -0.5,   -0.5,   -0.5,   -0.6,   -0.8,   -1.0,   -0.9,   -0.9,   -0.9,   -0.8,   -0.8,   -0.8,   -0.7
2000/06/11 20:30,  999.0,    0.1,  999.0,   -0.1,   -0.0,    0.0,    0.2,    0.0,   -0.0,    0.0,    0.2,    0.1,   -0.0,  999.0,  999.0,   -0.1,    0.0,  999.0,  999.0,  999.0,  999.0,  999.0,  999.0,  999.0,  999.0,  999.0,  999.0,   -0.0,  999.0,   -0.0,   -0.2,   -0.9,   -0.9,   -0.9,   -1.0,   -1.0,   -1.0,   -0.9,   -0.9,   -0.9,   -0.9,   -0.8,   -0.8,   -0.8,   -0.8,   -0.8
2000/06/11 20:40,  999.0,  999.0,    0.2,    0.3,   -0.1,   -0.0,  999.0,    0.0,  999.0,    0.0,  999.0,  999.0,   -0.0,  999.0,  999.0,    0.0,   -0.3,  999.0,  999.0,  999.0,  999.0,  999.0,  999.0,  999.0,  999.0,  999.0,  999.0,    0.1,    0.1,    0.1,   -0.4,   -0.9,   -0.9,   -0.9,   -0.9,   -0.9,   -0.9,   -0.9,   -0.9,   -1.0,   -0.9,   -0.9,   -0.9,   -0.8,   -0.8,   -0.7
2000/06/11 20:50,  999.0,  999.0,  999.0,  999.0,  999.0,  999.0,  999.0,  999.0,   -0.1,  999.0,  999.0,    0.0,  999.0,  999.0,  999.0,  999.0,    0.0,  999.0,  999.0,  999.0,  999.0,  999.0,  999.0,  999.0,  999.0,  999.0,  999.0,    0.0,   -0.2,   -0.4,   -0.7,   -0.9,   -1.0,   -1.0,   -1.2,   -1.2,   -1.1,   -1.0,   -0.9,   -0.8,   -0.8,   -0.8,   -0.8,   -0.8,   -0.8,   -0.7
2000/06/11 21:00,  999.0,  999.0,  999.0,  999.0,  999.0,    0.0,    0.1,  999.0,    0.0,  999.0,  999.0,  999.0,   -0.2,  999.0,  999.0,  999.0,   -0.1,  999.0,  999.0,  999.0,  999.0,  999.0,  999.0,  999.0,  999.0,  999.0,  999.0,   -0.0,   -0.3,   -0.6,   -1.0,   -1.0,   -0.9,   -1.0,   -1.0,   -1.0,   -0.9,   -0.9,   -1.0,   -0.9,   -0.9,   -0.9,   -0.9,   -0.8,   -0.8,   -0.8
2000/06/11 21:10,  999.0,  999.0,   -0.3,  999.0,  999.0,   -0.1,  999.0,    0.0,  999.0,  999.0,  999.0,  999.0,  999.0,  999.0,  999.0,  999.0,  999.0,  999.0,  999.0,  999.0,  999.0,  999.0,  999.0,  999.0,  999.0,  999.0,  999.0,   -0.5,   -0.7,   -1.1,   -1.1,   -1.0,   -1.1,   -1.1,   -1.1,   -1.0,   -1.0,   -1.0,   -0.9,   -0.9,   -0.9,   -0.9,   -0.8,   -0.7,   -0.6,   -0.7
2000/06/11 21:20,  999.0,   -0.2,  999.0,   -0.1,   -0.6,    0.0,  999.0,    0.2,  999.0,    0.1,   -0.1,  999.0,    0.1,  999.0,  999.0,  999.0,  999.0,  999.0,  999.0,  999.0,  999.0,  999.0,  999.0,  999.0,  999.0,    0.2,    0.1,   -0.3,   -0.9,   -1.0,   -1.0,   -1.0,   -1.0,   -1.1,   -1.0,   -0.9,   -1.0,   -1.0,   -1.0,   -1.0,   -1.0,   -1.0,   -0.9,   -0.8,   -0.7,   -0.5
2000/06/11 21:30,  999.0,  999.0,   -0.2,    0.0,  999.0,  999.0,    0.1,  999.0,  999.0,   -0.0,   -0.1,  999.0,  999.0,  999.0,  999.0,  999.0,  999.0,  999.0,  999.0,  999.0,  999.0,  999.0,  999.0,  999.0,  999.0,   -0.2,   -0.4,   -0.3,   -1.1,   -1.2,   -1.1,   -1.1,   -1.1,   -1.0,   -1.0,   -1.1,   -1.0,   -0.9,   -0.9,   -1.0,   -1.0,   -1.0,   -0.9,   -0.9,   -0.8,   -0.6
2000/06/11 21:40,    0.2,   -0.0,    0.1,    0.2,  999.0,  999.0,  999.0,  999.0,  999.0,  999.0,  999.0,  999.0,  999.0,  999.0,  999.0,    0.0,    0.1,  999.0,  999.0,  999.0,  999.0,  999.0,  999.0,  999.0,   -0.6,   -0.1,   -0.1,   -0.8,   -1.2,   -1.2,   -1.1,   -1.1,   -1.1,   -1.1,   -1.1,   -1.1,   -1.0,   -1.0,   -1.0,   -1.0,   -1.0,   -0.9,   -0.9,   -0.9,   -0.9,   -0.8
2000/06/11 21:50,    0.4,  999.0,    0.2,    0.3,  999.0,  999.0,   -0.0,  999.0,   -0.1,  999.0,   -0.1,   -0.2,   -0.2,  999.0,  999.0,   -0.3,   -0.0,  999.0,  999.0,  999.0,  999.0,  999.0,  999.0,  999.0,   -0.1,    0.1,   -0.2,   -0.2,   -0.8,   -1.0,   -1.1,   -1.1,   -1.1,   -1.1,   -1.1,   -0.9,   -0.9,   -0.8,   -0.9,   -0.9,   -0.9,   -0.9,   -0.8,   -0.8,   -0.5,   -0.7
2000/06/11 22:00,  999.0,    0.2,    0.7,  999.0,    0.1,    0.2,  999.0,  999.0,  999.0,   -0.0,   -0.2,   -0.1,  999.0,  999.0,  999.0,    0.1,    0.1,  999.0,  999.0,  999.0,  999.0,  999.0,  999.0,   -0.1,   -0.4,   -0.2,   -0.5,   -1.0,   -1.3,   -1.1,   -1.2,   -1.1,   -1.0,   -0.9,   -0.9,   -0.9,   -0.9,   -0.9,   -0.9,   -0.8,   -0.8,   -0.7,   -0.7,   -0.7,   -0.5,   -0.6
2000/06/11 22:10,    0.4,    0.0,   -0.2,    0.3,    0.1,    0.2,  999.0,  999.0,    0.3,    0.0,   -0.4,  999.0,   -0.2,   -0.2,   -0.2,  999.0,   -0.1,  999.0,  999.0,  999.0,  999.0,  999.0,  999.0,   -0.0,    0.2,    0.4,    0.0,   -0.8,   -0.9,   -1.2,   -1.1,   -1.1,   -1.1,   -1.1,   -1.0,   -1.0,   -1.0,   -1.1,   -0.9,   -0.9,   -0.8,   -0.8,   -0.9,   -0.7,   -0.7,   -0.6
2000/06/11 22:20,  999.0,  999.0,  999.0,  999.0,  999.0,  999.0,  999.0,  999.0,  999.0,    0.1,   -0.1,   -0.1,   -0.1,  999.0,  999.0,   -0.2,  999.0,  999.0,  999.0,  999.0,  999.0,  999.0,  999.0,    0.2,    0.2,    0.5,    0.4,   -0.4,   -1.0,   -1.1,   -1.0,   -1.0,   -1.0,   -0.9,   -0.9,   -1.0,   -0.9,   -0.9,   -0.8,   -0.8,   -0.7,   -0.6,   -0.7,   -0.7,   -0.7,   -0.7
2000/06/11 22:30,  999.0,    0.0,  999.0,    0.4,    0.2,    0.1,    0.0,   -0.1,   -0.1,   -0.1,   -0.0,  999.0,   -0.2,    0.0,    0.2,   -0.1,    0.3,  999.0,  999.0,  999.0,  999.0,   -0.3,   -0.1,   -0.0,   -0.2,   -0.7,   -1.1,   -1.1,   -0.9,   -0.9,   -0.9,   -1.0,   -1.0,   -1.0,   -0.9,   -0.9,   -0.8,   -0.8,   -0.7,   -0.6,   -0.6,   -0.7,   -0.6,   -0.6,   -0.7,   -0.6
2000/06/11 22:40,  999.0,  999.0,  999.0,    0.0,  999.0,  999.0,   -0.1,   -0.3,   -0.1,   -0.3,  999.0,    0.0,  999.0,  999.0,  999.0,    0.1,  999.0,  999.0,  999.0,  999.0,  999.0,  999.0,  999.0,    0.3,    0.2,   -0.7,   -1.2,   -1.0,   -0.9,   -1.0,   -1.0,   -1.1,   -1.2,   -1.0,   -0.9,   -0.9,   -1.0,   -0.9,   -0.8,   -0.7,   -0.7,   -0.8,   -0.7,   -0.7,   -0.7,   -0.6
2000/06/11 22:50,  999.0,  999.0,   -0.1,  999.0,  999.0,    0.2,  999.0,    0.0,  999.0,  999.0,    0.1,  999.0,   -0.1,   -0.1,  999.0,   -0.1,  999.0,  999.0,  999.0,  999.0,  999.0,  999.0,    0.1,    0.3,    0.4,    0.2,   -0.2,   -1.0,   -1.1,   -1.1,   -1.4,   -1.3,   -1.3,   -1.0,   -1.1,   -1.0,   -1.1,   -1.0,   -0.8,   -0.8,   -0.9,   -0.8,   -0.8,   -0.7,   -0.7,   -0.6
2000/06/11 23:00,   -0.0,   -0.1,   -0.0,  999.0,    0.0,    0.1,   -0.1,   -0.1,    0.0,   -0.1,  999.0,   -0.1,   -0.1,  999.0,    0.2,   -0.0,    0.2,  999.0,  999.0,  999.0,  999.0,    0.2,   -0.1,    0.3,   -0.0,   -0.5,   -1.3,   -1.2,   -0.9,   -1.1,   -1.1,   -1.1,   -1.4,   -1.0,   -1.1,   -1.1,   -1.0,   -0.9,   -0.9,   -0.9,   -0.8,   -0.7,   -0.6,   -0.5,   -0.6,   -0.5
2000/06/11 23:10,   -0.1,  999.0,  999.0,    0.2,    0.0,    0.1,    0.0,  999.0,    0.1,  999.0,   -0.1,  999.0,  999.0,  999.0,    0.2,    0.0,    0.0,  999.0,  999.0,  999.0,  999.0,   -0.0,    0.1,    0.2,    0.3,  999.0,   -1.1,   -1.3,   -1.1,   -1.2,   -1.2,   -1.2,   -1.1,   -1.0,   -1.1,   -1.1,   -1.0,   -1.0,   -1.0,   -0.9,   -0.9,   -0.9,   -0.9,   -0.9,   -0.7,   -0.7
2000/06/11 23:20,  999.0,  999.0,   -0.2,  999.0,   -0.0,   -0.0,   -0.1,  999.0,    0.1,   -0.0,  999.0,   -0.2,    0.0,  999.0,    0.1,    0.0,   -0.1,  999.0,  999.0,  999.0,   -0.6,    0.3,    0.4,    0.1,   -0.4,   -1.6,   -1.5,   -1.3,   -1.4,   -1.4,   -1.3,   -1.2,   -1.3,   -1.2,   -1.2,   -1.1,   -1.0,   -1.0,   -1.0,   -0.9,   -0.9,   -0.8,  999.0,   -0.7,   -0.7,   -0.6
2000/06/11 23:30,  999.0,    0.3,    0.0,    0.3,  999.0,   -0.1,   -0.1,   -0.2,   -0.2,  999.0,   -0.1,   -0.2,   -0.1,   -0.0,    0.3,   -0.0,    0.4,  999.0,  999.0,  999.0,   -0.3,    0.1,    0.2,   -0.1,   -0.8,   -1.1,   -1.2,   -1.0,   -1.1,   -1.2,   -1.3,   -1.3,   -1.2,   -1.1,   -1.1,   -1.1,   -1.0,   -1.1,   -1.1,   -1.0,   -1.0,   -1.0,   -0.9,   -0.8,   -0.8,   -0.8
2000/06/11 23:40,  999.0,    0.3,  999.0,    0.3,  999.0,  999.0,    0.2,  999.0,  999.0,  999.0,    0.0,  999.0,   -0.1,   -0.1,   -0.2,   -0.3,    0.1,  999.0,  999.0,  999.0,    0.1,    0.3,    0.3,    0.2,   -0.1,   -0.8,   -1.0,   -1.0,   -1.2,   -1.3,   -1.3,   -1.4,   -1.3,   -1.2,   -1.1,   -1.0,   -1.1,   -1.1,   -1.1,   -1.0,   -1.0,   -0.9,   -0.9,   -0.8,   -0.6,   -0.6
2000/06/11 23:50,  999.0,  999.0,  999.0,  999.0,  999.0,   -0.1,   -0.1,  999.0,  999.0,   -0.1,  999.0,   -0.2,   -0.0,   -0.1,  999.0,  999.0,  999.0,  999.0,  999.0,   -0.0,   -0.0,    0.0,    0.2,    0.1,   -0.6,  999.0,   -1.0,   -1.2,   -1.4,   -1.5,   -1.6,   -1.6,   -1.5,   -1.4,   -1.3,   -1.2,   -1.3,   -1.2,   -1.1,   -1.1,   -1.0,   -0.9,  999.0,   -0.9,   -0.8,   -0.7
